User: anonymous   Login
Location: Demmingen
(48.6757°N, 10.4375°E)
Time: 02:57:37
(UTC+00:00)
Language:

COSMOS 2428 - Orbit

View from above orbital plane
View from above orbital plane
View from above satellite
View from above satellite

Ground track
Ground track

The orbit data is extracted from the following two-line orbital elements,

1 31792U 07029A   24194.83121172 -.00000191  00000-0 -77350-4 0  9994
2 31792  70.9385  32.9626 0009568   2.3887 357.7278 14.12706611878742
Epoch (UTC): 12 July 2024 19:56:56
Eccentricity: 0.0009568
inclination: 70.9385°
perigee height: 843 km
apogee height: 857 km
right ascension of ascending node: 32.9626°
argument of perigee: 2.3887°
revolutions per day: 14.12706611
mean anomaly at epoch: 357.7278°
orbit number at epoch: 87874

The dashed part of the orbit path shows where the satellite is in the earth's shadow,  

DLR